TimeEDT,TemperatureF,Dew PointF,Humidity,Sea Level PressureIn,VisibilityMPH,Wind Direction,Wind SpeedMPH,Gust SpeedMPH,PrecipitationIn,Events,Conditions,WindDirDegrees,DateUTC
12:53 AM,75.0,72.0,90,30.19,9.0,NE,3.5,-,N/A,,Clear,50,2013-07-17 04:53:00
1:53 AM,73.9,72.0,93,30.19,8.0,NE,3.5,-,N/A,,Clear,40,2013-07-17 05:53:00
2:53 AM,75.0,73.0,94,30.18,8.0,NE,3.5,-,N/A,,Partly Cloudy,40,2013-07-17 06:53:00
3:53 AM,73.9,72.0,93,30.17,7.0,Calm,Calm,-,N/A,,Clear,0,2013-07-17 07:53:00
4:49 AM,75.2,73.4,94,30.17,5.0,NNE,5.8,-,N/A,,Scattered Clouds,20,2013-07-17 08:49:00
4:53 AM,73.9,73.0,97,30.16,4.0,NNE,4.6,-,N/A,,Scattered Clouds,30,2013-07-17 08:53:00
4:55 AM,73.4,73.4,100,30.17,4.0,NNE,5.8,-,N/A,,Mostly Cloudy,30,2013-07-17 08:55:00
5:37 AM,75.2,73.4,94,30.17,1.8,NNE,3.5,-,N/A,,Overcast,30,2013-07-17 09:37:00
5:51 AM,75.2,73.4,94,30.18,0.8,NE,5.8,-,N/A,,Overcast,40,2013-07-17 09:51:00
5:53 AM,75.0,73.0,94,30.17,0.5,NE,5.8,-,N/A,Fog,Fog,50,2013-07-17 09:53:00
6:28 AM,75.2,73.4,94,30.18,1.8,NE,3.5,-,N/A,,Overcast,50,2013-07-17 10:28:00
6:35 AM,75.2,73.4,94,30.18,2.5,ENE,3.5,-,N/A,,Overcast,60,2013-07-17 10:35:00
6:43 AM,75.2,73.4,94,30.18,4.0,ENE,4.6,-,N/A,,Overcast,60,2013-07-17 10:43:00
6:53 AM,75.0,73.0,94,30.18,5.0,NE,3.5,-,N/A,,Overcast,40,2013-07-17 10:53:00
7:53 AM,75.9,73.9,94,30.19,7.0,NE,6.9,-,N/A,,Overcast,40,2013-07-17 11:53:00
8:45 AM,78.8,75.2,89,30.21,10.0,ENE,6.9,-,N/A,,Overcast,60,2013-07-17 12:45:00
8:53 AM,79.0,75.0,88,30.21,10.0,ENE,8.1,-,N/A,,Mostly Cloudy,60,2013-07-17 12:53:00
9:13 AM,80.6,73.4,79,30.21,10.0,ENE,10.4,-,N/A,,Scattered Clouds,60,2013-07-17 13:13:00
9:42 AM,82.4,73.4,74,30.22,10.0,East,6.9,-,N/A,,Mostly Cloudy,100,2013-07-17 13:42:00
9:53 AM,82.9,73.9,74,30.21,10.0,ENE,6.9,-,N/A,,Mostly Cloudy,60,2013-07-17 13:53:00
10:37 AM,84.2,73.4,70,30.20,10.0,ENE,8.1,-,N/A,,Mostly Cloudy,60,2013-07-17 14:37:00
10:53 AM,84.0,72.0,67,30.19,10.0,NE,11.5,-,N/A,,Mostly Cloudy,50,2013-07-17 14:53:00
11:53 AM,88.0,69.1,53,30.19,10.0,ENE,11.5,20.7,N/A,,Partly Cloudy,60,2013-07-17 15:53:00
12:53 PM,89.1,71.1,55,30.18,10.0,NE,13.8,18.4,N/A,,Scattered Clouds,50,2013-07-17 16:53:00
1:53 PM,90.0,68.0,48,30.17,10.0,ENE,10.4,-,N/A,,Scattered Clouds,70,2013-07-17 17:53:00
2:53 PM,91.0,66.9,45,30.14,10.0,ENE,13.8,23.0,N/A,,Clear,70,2013-07-17 18:53:00
3:53 PM,91.0,64.9,42,30.12,10.0,East,8.1,19.6,N/A,,Clear,90,2013-07-17 19:53:00
4:53 PM,89.1,64.0,43,30.11,10.0,ENE,9.2,-,N/A,,Clear,70,2013-07-17 20:53:00
5:53 PM,89.1,66.9,48,30.10,10.0,East,10.4,-,N/A,,Partly Cloudy,90,2013-07-17 21:53:00
6:53 PM,84.9,69.1,59,30.10,10.0,East,8.1,-,N/A,,Clear,90,2013-07-17 22:53:00
7:53 PM,82.9,68.0,60,30.10,10.0,East,6.9,-,N/A,,Clear,90,2013-07-17 23:53:00
8:53 PM,80.1,69.1,69,30.13,10.0,East,5.8,-,N/A,,Clear,80,2013-07-18 00:53:00
9:53 PM,79.0,70.0,74,30.15,10.0,ENE,4.6,-,N/A,,Clear,70,2013-07-18 01:53:00
10:53 PM,77.0,70.0,79,30.14,10.0,Calm,Calm,-,N/A,,Clear,0,2013-07-18 02:53:00
11:53 PM,75.0,71.1,87,30.14,10.0,SSE,3.5,-,N/A,,Clear,150,2013-07-18 03:53:00